User: anonymous   Login
Location: East Irvine
(33.6759°N, 117.7598°W)
Time: 16:29:17
(UTC+00:00)
Language:

DELTA 2 R/B (1) - Orbit

View from above orbital plane
View from above orbital plane
View from above satellite
View from above satellite

Ground track
Ground track

The orbit is defined by the following mean orbital elements,

1 27665U          26017.24538389 +.00000000 +00000-0 +51233-4 0 00005
2 27665  39.5772 334.7872 0008455 147.7909 346.5131 14.29500657    06
Epoch (UTC): 17 January 2026 05:53:21
Eccentricity: 0.0008455
inclination: 39.5772°
perigee height: 787 km
apogee height: 799 km
right ascension of ascending node: 334.7872°
argument of perigee: 147.7909°
revolutions per day: 14.29500657
mean anomaly at epoch: 346.5131°

The dashed part of the orbit path shows where the satellite is in the earth's shadow,  

DLR